SL-8 DEB, 1618

Orbit data source: Space-Track

SL-8 DEB, 1618 is space debris in LEO originally from a launch on Sat, 18 Sep 1965 UTC launched from the Tyuratam Missile And Space Complex (TTMTR). Debris objects in space refer to the collection of defunct objects orbiting the Earth. Examples of debris include non-operational satellites, rocket bodies, and fragments generated from explosions, collisions, or faulty payload assembly.

Loading next visibility...
SL-8 DEB details
Identifier
1618, 1965-073K
Orbit
LEO
Last TLE update1 day ago
Origin
Flag of CISRVSN (CIS)
ManufacturerUnknown
MissionSpacecraft
Bus & MotorUnknown
MassUnknown
Launch date (UTC)
1965-09-18 (59 years ago)
Launch vehicleUnknown
Launch site
Tyuratam Missile And Space Complex (TTMTR)
Object type
Payload
Rocket body
Debris
Shape & HBRUnknown
Radar Cross SectionMedium (>0.1 m² and <1 m²)

Expand to show TLE details & history

TLE from 1 day ago
0 SL-8 DEB
1 01618U 65073K   25039.25407315  .00000256  00000-0  26959-2 0  9999
2 01618  56.1798 350.4354 0225960 349.0346 160.1938 12.30263471662327
Epoch: 2025-02-08T06:05Z
Definitive object data (Epoch: 2025-02-08T06:05:51.92Z)
Latitude24.52958°
Longitude-77.35039°
Altitude1,718.263 km
Speed6.945 km/s
True Right ascension10h 10m 52s
True Declination24° 24' 55"
Sunlit
Object was in full shadow at TLE epoch
Visualization TLE readout
Latitude54.78369°
Longitude-134.02328°
Altitude1,613.613 km
Speed7.043 km/s
Apparent Right ascension05h 50m 05s
Apparent Declination14° 29' 54"
Sunlit
Object is in partial shadow
Visualization observer readout
Local Sidereal Time17:17:57
Azimuth350.487° N
Elevation-35.074°
Doppler factor1
Orbital elements
Apogee altitude1,727.056 km
Perigee altitude1,368.86 km
Semi-major axis7,926.095 km
Eccentricity0.022596
Inclination56.1798°
RAAN350.4354°
Arg. of periapsis349.0346°
True anomaly161.0484°
Mean anomaly160.1938°
Eccentric anomaly160.62334°
Mean motion3.07577 °/min
BSTAR0.0026959
Orbital period117.04 mins
Loading maneuver chart data...
Loading historical data...
Loading historical data...
Loading historical data...
Loading historical data...
Loading historical data...
Loading historical data...
Loading historical data...

SL-8 DEB Visibility forecast

Observer location: undefined°, undefined

Span
Click to sort rows by Start time (UTC) header in descending order
Start Az.
Max El. time (UTC)
Max El. Az.
Max El.
End time (UTC)
End Az.
6 mins2025-02-09 20:25:37.075Z131.589° SE2025-02-09 20:28:37.075Z109.611° ESE13.146°2025-02-09 20:31:37.075Z88.231° E
15 mins2025-02-09 22:22:37.075Z206.626° SW2025-02-09 22:29:37.075Z109.863° ESE42.593°2025-02-09 22:37:37.075Z49.234° ENE
15 mins2025-02-10 00:25:37.075Z267.938° W2025-02-10 00:31:37.075Z325.811° NNW34.623°2025-02-10 00:40:37.075Z42.049° NE
14 mins2025-02-10 02:30:37.075Z308.666° NW2025-02-10 02:36:37.075Z356.934° N25.993°2025-02-10 02:44:37.075Z56.056° ENE
16 mins2025-02-10 04:34:37.075Z322.429° NNW2025-02-10 04:41:37.075Z22.388° NNE34.68°2025-02-10 04:50:37.075Z95.729° ESE
18 mins2025-02-10 06:36:37.075Z311.682° NW2025-02-10 06:45:37.075Z208.737° SW43.945°2025-02-10 06:54:37.075Z147.257° SSE
11 mins2025-02-10 08:41:37.075Z279.371° WNW2025-02-10 08:46:37.075Z245.579° WSW18.471°2025-02-10 08:52:37.075Z208.031° SW
|